Year,Month,Day,Hour,Minute,Value (Times are PST for temperature in C)
2009,04,27,00,00,4.90
2009,04,27,00,01,4.90
2009,04,27,00,02,4.90
2009,04,27,00,03,4.90
2009,04,27,00,04,4.90
2009,04,27,00,05,4.90
2009,04,27,00,06,4.90
2009,04,27,00,07,4.90
2009,04,27,00,08,4.90
2009,04,27,00,09,4.90
2009,04,27,00,10,4.80
2009,04,27,00,11,4.80
2009,04,27,00,12,4.80
2009,04,27,00,13,4.80
2009,04,27,00,14,4.80
2009,04,27,00,15,4.80
2009,04,27,00,16,4.80
2009,04,27,00,17,4.80
2009,04,27,00,18,4.80
2009,04,27,00,19,4.80
2009,04,27,00,20,4.80
2009,04,27,00,21,4.80
2009,04,27,00,22,4.70
2009,04,27,00,23,4.70
2009,04,27,00,24,4.70
2009,04,27,00,25,4.70
2009,04,27,00,26,4.70
2009,04,27,00,27,4.70
2009,04,27,00,28,4.60
2009,04,27,00,29,4.60
2009,04,27,00,30,4.60
2009,04,27,00,31,4.60
2009,04,27,00,32,4.60
2009,04,27,00,33,4.60
2009,04,27,00,34,4.60
2009,04,27,00,35,4.50
2009,04,27,00,36,4.50
2009,04,27,00,37,4.50
2009,04,27,00,38,4.50
2009,04,27,00,39,4.50
2009,04,27,00,40,4.40
2009,04,27,00,41,4.40
2009,04,27,00,42,4.40
2009,04,27,00,43,4.40
2009,04,27,00,44,4.40
2009,04,27,00,45,4.40
2009,04,27,00,46,4.40
2009,04,27,00,47,4.40
2009,04,27,00,48,4.40
2009,04,27,00,49,4.40
2009,04,27,00,50,4.40
2009,04,27,00,51,4.40
2009,04,27,00,52,4.30
2009,04,27,00,53,4.30
2009,04,27,00,54,4.30
2009,04,27,00,55,4.30
2009,04,27,00,56,4.30
2009,04,27,00,57,4.30
2009,04,27,00,58,4.30
2009,04,27,00,59,4.30
2009,04,27,01,00,4.30
2009,04,27,01,01,4.30
2009,04,27,01,02,4.30
2009,04,27,01,03,4.30
2009,04,27,01,04,4.30
2009,04,27,01,05,4.20
2009,04,27,01,06,4.20
2009,04,27,01,07,4.20
2009,04,27,01,08,4.20
2009,04,27,01,09,4.20
2009,04,27,01,10,4.20
2009,04,27,01,11,4.20
2009,04,27,01,12,4.20
2009,04,27,01,13,4.20
2009,04,27,01,14,4.20
2009,04,27,01,15,4.20
2009,04,27,01,16,4.20
2009,04,27,01,17,4.20
2009,04,27,01,18,4.20
2009,04,27,01,19,4.10
2009,04,27,01,20,4.10
2009,04,27,01,21,4.10
2009,04,27,01,22,4.10
2009,04,27,01,23,4.10
2009,04,27,01,24,4.10
2009,04,27,01,25,4.10
2009,04,27,01,26,4.10
2009,04,27,01,27,4.10
2009,04,27,01,28,4.10
2009,04,27,01,29,4.10
2009,04,27,01,30,4.10
2009,04,27,01,31,4.00
2009,04,27,01,32,4.00
2009,04,27,01,33,4.00
2009,04,27,01,34,4.00
2009,04,27,01,35,4.00
2009,04,27,01,36,4.00
2009,04,27,01,37,4.00
2009,04,27,01,38,4.00
2009,04,27,01,39,4.00
2009,04,27,01,40,4.00
2009,04,27,01,41,3.90
2009,04,27,01,42,3.90
2009,04,27,01,43,3.90
2009,04,27,01,44,3.90
2009,04,27,01,45,3.90
2009,04,27,01,46,3.90
2009,04,27,01,47,3.90
2009,04,27,01,48,3.80
2009,04,27,01,49,3.80
2009,04,27,01,50,3.80
2009,04,27,01,51,3.80
2009,04,27,01,52,3.80
2009,04,27,01,53,3.80
2009,04,27,01,54,3.80
2009,04,27,01,55,3.70
2009,04,27,01,56,3.70
2009,04,27,01,57,3.70
2009,04,27,01,58,3.70
2009,04,27,01,59,3.70
2009,04,27,02,00,3.70
2009,04,27,02,01,3.70
2009,04,27,02,02,3.70
2009,04,27,02,03,3.70
2009,04,27,02,04,3.70
2009,04,27,02,05,3.70
2009,04,27,02,06,3.70
2009,04,27,02,07,3.80
2009,04,27,02,08,3.80
2009,04,27,02,09,3.80
2009,04,27,02,10,3.80
2009,04,27,02,11,3.80
2009,04,27,02,12,3.80
2009,04,27,02,13,3.80
2009,04,27,02,14,3.80
2009,04,27,02,15,3.70
2009,04,27,02,16,3.70
2009,04,27,02,17,3.70
2009,04,27,02,18,3.70
2009,04,27,02,19,3.70
2009,04,27,02,20,3.70
2009,04,27,02,21,3.70
2009,04,27,02,22,3.70
2009,04,27,02,23,3.70
2009,04,27,02,24,3.70
2009,04,27,02,25,3.70
2009,04,27,02,26,3.70
2009,04,27,02,27,3.70
2009,04,27,02,28,3.70
2009,04,27,02,29,3.70
2009,04,27,02,30,3.70
2009,04,27,02,31,3.70
2009,04,27,02,32,3.70
2009,04,27,02,33,3.70
2009,04,27,02,34,3.70
2009,04,27,02,35,3.70
2009,04,27,02,36,3.70
2009,04,27,02,37,3.70
2009,04,27,02,38,3.70
2009,04,27,02,39,3.70
2009,04,27,02,40,3.70
2009,04,27,02,41,3.70
2009,04,27,02,42,3.70
2009,04,27,02,43,3.70
2009,04,27,02,44,3.70
2009,04,27,02,45,3.70
2009,04,27,02,46,3.70
2009,04,27,02,47,3.70
2009,04,27,02,48,3.70
2009,04,27,02,49,3.70
2009,04,27,02,50,3.60
2009,04,27,02,51,3.60
2009,04,27,02,52,3.60
2009,04,27,02,53,3.60
2009,04,27,02,54,3.60
2009,04,27,02,55,3.60
2009,04,27,02,56,3.60
2009,04,27,02,57,3.60
2009,04,27,02,58,3.60
2009,04,27,02,59,3.60
2009,04,27,03,00,3.60
2009,04,27,03,01,3.60
2009,04,27,03,02,3.60
2009,04,27,03,03,3.60
2009,04,27,03,04,3.60
2009,04,27,03,05,3.60
2009,04,27,03,06,3.60
2009,04,27,03,07,3.50
2009,04,27,03,08,3.50
2009,04,27,03,09,3.50
2009,04,27,03,10,3.50
2009,04,27,03,11,3.50
2009,04,27,03,12,3.50
2009,04,27,03,13,3.50
2009,04,27,03,14,3.50
2009,04,27,03,15,3.50
2009,04,27,03,16,3.40
2009,04,27,03,17,3.40
2009,04,27,03,18,3.40
2009,04,27,03,19,3.40
2009,04,27,03,20,3.40
2009,04,27,03,21,3.40
2009,04,27,03,22,3.40
2009,04,27,03,23,3.40
2009,04,27,03,24,3.40
2009,04,27,03,25,3.30
2009,04,27,03,26,3.30
2009,04,27,03,27,3.30
2009,04,27,03,28,3.30
2009,04,27,03,29,3.30
2009,04,27,03,30,3.30
2009,04,27,03,31,3.30
2009,04,27,03,32,3.30
2009,04,27,03,33,3.20
2009,04,27,03,34,3.20
2009,04,27,03,35,3.20
2009,04,27,03,36,3.20
2009,04,27,03,37,3.20
2009,04,27,03,38,3.20
2009,04,27,03,39,3.20
2009,04,27,03,40,3.20
2009,04,27,03,41,3.20
2009,04,27,03,42,3.20
2009,04,27,03,43,3.20
2009,04,27,03,44,3.20
2009,04,27,03,45,3.20
2009,04,27,03,46,3.20
2009,04,27,03,47,3.20
2009,04,27,03,48,3.10
2009,04,27,03,49,3.10
2009,04,27,03,50,3.10
2009,04,27,03,51,3.10
2009,04,27,03,52,3.10
2009,04,27,03,53,3.10
2009,04,27,03,54,3.10
2009,04,27,03,55,3.10
2009,04,27,03,56,3.10
2009,04,27,03,57,3.10
2009,04,27,03,58,3.00
2009,04,27,03,59,3.00
2009,04,27,04,00,3.00
2009,04,27,04,01,3.00
2009,04,27,04,02,3.00
2009,04,27,04,03,3.00
2009,04,27,04,04,3.00
2009,04,27,04,05,3.00
2009,04,27,04,06,3.00
2009,04,27,04,07,3.00
2009,04,27,04,08,3.00
2009,04,27,04,09,3.00
2009,04,27,04,10,3.00
2009,04,27,04,11,3.00
2009,04,27,04,12,2.90
2009,04,27,04,13,2.90
2009,04,27,04,14,2.90
2009,04,27,04,15,2.90
2009,04,27,04,16,2.90
2009,04,27,04,17,2.90
2009,04,27,04,18,2.90
2009,04,27,04,19,2.90
2009,04,27,04,20,2.90
2009,04,27,04,21,2.90
2009,04,27,04,22,2.90
2009,04,27,04,23,2.90
2009,04,27,04,24,2.90
2009,04,27,04,25,2.90
2009,04,27,04,26,2.90
2009,04,27,04,27,2.90
2009,04,27,04,28,2.90
2009,04,27,04,29,2.90
2009,04,27,04,30,2.90
2009,04,27,04,31,2.90
2009,04,27,04,32,2.90
2009,04,27,04,33,2.90
2009,04,27,04,34,2.90
2009,04,27,04,35,2.80
2009,04,27,04,36,2.90
2009,04,27,04,37,2.80
2009,04,27,04,38,2.80
2009,04,27,04,39,2.80
2009,04,27,04,40,2.80
2009,04,27,04,41,2.80
2009,04,27,04,42,2.80
2009,04,27,04,43,2.80
2009,04,27,04,44,2.80
2009,04,27,04,45,2.80
2009,04,27,04,46,2.80
2009,04,27,04,47,2.80
2009,04,27,04,48,2.80
2009,04,27,04,49,2.80
2009,04,27,04,50,2.80
2009,04,27,04,51,2.80
2009,04,27,04,52,2.80
2009,04,27,04,53,2.80
2009,04,27,04,54,2.80
2009,04,27,04,55,2.80
2009,04,27,04,56,2.80
2009,04,27,04,57,2.80
2009,04,27,04,58,2.80
2009,04,27,04,59,2.80
2009,04,27,05,00,2.80
2009,04,27,05,01,2.70
2009,04,27,05,02,2.70
2009,04,27,05,03,2.70
2009,04,27,05,04,2.70
2009,04,27,05,05,2.70
2009,04,27,05,06,2.70
2009,04,27,05,07,2.70
2009,04,27,05,08,2.70
2009,04,27,05,09,2.70
2009,04,27,05,10,2.70
2009,04,27,05,11,2.70
2009,04,27,05,12,2.70
2009,04,27,05,13,2.70
2009,04,27,05,14,2.70
2009,04,27,05,15,2.70
2009,04,27,05,16,2.70
2009,04,27,05,17,2.70
2009,04,27,05,18,2.70
2009,04,27,05,19,2.70
2009,04,27,05,20,2.70
2009,04,27,05,21,2.70
2009,04,27,05,22,2.70
2009,04,27,05,23,2.70
2009,04,27,05,24,2.70
2009,04,27,05,25,2.70
2009,04,27,05,26,2.70
2009,04,27,05,27,2.70
2009,04,27,05,28,2.70
2009,04,27,05,29,2.70
2009,04,27,05,30,2.80
2009,04,27,05,31,2.70
2009,04,27,05,32,2.80
2009,04,27,05,33,2.80
2009,04,27,05,34,2.80
2009,04,27,05,35,2.80
2009,04,27,05,36,2.80
2009,04,27,05,37,2.80
2009,04,27,05,38,2.80
2009,04,27,05,39,2.80
2009,04,27,05,40,2.80
2009,04,27,05,41,2.70
2009,04,27,05,42,2.70
2009,04,27,05,43,2.70
2009,04,27,05,44,2.70
2009,04,27,05,45,2.70
2009,04,27,05,46,2.70
2009,04,27,05,47,2.70
2009,04,27,05,48,2.70
2009,04,27,05,49,2.70
2009,04,27,05,50,2.70
2009,04,27,05,51,2.70
2009,04,27,05,52,2.70
2009,04,27,05,53,2.70
2009,04,27,05,54,2.70
2009,04,27,05,55,2.70
2009,04,27,05,56,2.70
2009,04,27,05,57,2.70
2009,04,27,05,58,2.70
2009,04,27,05,59,2.70
2009,04,27,06,00,2.70
2009,04,27,06,01,2.70
2009,04,27,06,02,2.70
2009,04,27,06,03,2.70
2009,04,27,06,04,2.60
2009,04,27,06,05,2.60
2009,04,27,06,06,2.60
2009,04,27,06,07,2.60
2009,04,27,06,08,2.60
2009,04,27,06,09,2.60
2009,04,27,06,10,2.60
2009,04,27,06,11,2.60
2009,04,27,06,12,2.60
2009,04,27,06,13,2.60
2009,04,27,06,14,2.60
2009,04,27,06,15,2.60
2009,04,27,06,16,2.60
2009,04,27,06,17,2.60
2009,04,27,06,18,2.60
2009,04,27,06,19,2.60
2009,04,27,06,20,2.60
2009,04,27,06,21,2.60
2009,04,27,06,22,2.60
2009,04,27,06,23,2.60
2009,04,27,06,24,2.50
2009,04,27,06,25,2.50
2009,04,27,06,26,2.50
2009,04,27,06,27,2.50
2009,04,27,06,28,2.50
2009,04,27,06,29,2.50
2009,04,27,06,30,2.40
2009,04,27,06,31,2.40
2009,04,27,06,32,2.40
2009,04,27,06,33,2.40
2009,04,27,06,34,2.40
2009,04,27,06,35,2.40
2009,04,27,06,36,2.40
2009,04,27,06,37,2.40
2009,04,27,06,38,2.40
2009,04,27,06,39,2.40
2009,04,27,06,40,2.40
2009,04,27,06,41,2.40
2009,04,27,06,42,2.40
2009,04,27,06,43,2.40
2009,04,27,06,44,2.40
2009,04,27,06,45,2.40
2009,04,27,06,46,2.40
2009,04,27,06,47,2.40
2009,04,27,06,48,2.40
2009,04,27,06,49,2.40
2009,04,27,06,50,2.40
2009,04,27,06,51,2.40
2009,04,27,06,52,2.40
2009,04,27,06,53,2.50
2009,04,27,06,54,2.50
2009,04,27,06,55,2.50
2009,04,27,06,56,2.50
2009,04,27,06,57,2.50
2009,04,27,06,58,2.50
2009,04,27,06,59,2.60
2009,04,27,07,00,2.60
2009,04,27,07,01,2.60
2009,04,27,07,02,2.60
2009,04,27,07,03,2.60
2009,04,27,07,04,2.60
2009,04,27,07,05,2.60
2009,04,27,07,06,2.60
2009,04,27,07,07,2.60
2009,04,27,07,08,2.70
2009,04,27,07,09,2.70
2009,04,27,07,10,2.70
2009,04,27,07,11,2.70
2009,04,27,07,12,2.80
2009,04,27,07,13,2.80
2009,04,27,07,14,2.80
2009,04,27,07,15,2.80
2009,04,27,07,16,2.80
2009,04,27,07,17,2.90
2009,04,27,07,18,2.90
2009,04,27,07,19,2.90
2009,04,27,07,20,2.90
2009,04,27,07,21,3.00
2009,04,27,07,22,3.00
2009,04,27,07,23,3.00
2009,04,27,07,24,3.00
2009,04,27,07,25,3.00
2009,04,27,07,26,3.10
2009,04,27,07,27,3.10
2009,04,27,07,28,3.10
2009,04,27,07,29,3.10
2009,04,27,07,30,3.10
2009,04,27,07,31,3.10
2009,04,27,07,32,3.20
2009,04,27,07,33,3.20
2009,04,27,07,34,3.20
2009,04,27,07,35,3.20
2009,04,27,07,36,3.30
2009,04,27,07,37,3.30
2009,04,27,07,38,3.30
2009,04,27,07,39,3.40
2009,04,27,07,40,3.40
2009,04,27,07,41,3.50
2009,04,27,07,42,3.50
2009,04,27,07,43,3.60
2009,04,27,07,44,3.70
2009,04,27,07,45,3.70
2009,04,27,07,46,3.80
2009,04,27,07,47,3.80
2009,04,27,07,48,3.90
2009,04,27,07,49,3.90
2009,04,27,07,50,4.00
2009,04,27,07,51,4.10
2009,04,27,07,52,4.10
2009,04,27,07,53,4.20
2009,04,27,07,54,4.30
2009,04,27,07,55,4.30
2009,04,27,07,56,4.40
2009,04,27,07,57,4.40
2009,04,27,07,58,4.50
2009,04,27,07,59,4.60
2009,04,27,08,00,4.60
2009,04,27,08,01,4.70
2009,04,27,08,02,4.80
2009,04,27,08,03,4.90
2009,04,27,08,04,5.00
2009,04,27,08,05,5.10
2009,04,27,08,06,5.20
2009,04,27,08,07,5.30
2009,04,27,08,08,5.50
2009,04,27,08,09,5.60
2009,04,27,08,10,5.70
2009,04,27,08,11,5.80
2009,04,27,08,12,5.90
2009,04,27,08,13,6.00
2009,04,27,08,14,6.00
2009,04,27,08,15,6.10
2009,04,27,08,16,6.20
2009,04,27,08,17,6.20
2009,04,27,08,18,6.30
2009,04,27,08,19,6.30
2009,04,27,08,20,6.40
2009,04,27,08,21,6.50
2009,04,27,08,22,6.60
2009,04,27,08,23,6.70
2009,04,27,08,24,6.80
2009,04,27,08,25,6.90
2009,04,27,08,26,7.10
2009,04,27,08,27,7.20
2009,04,27,08,28,7.20
2009,04,27,08,29,7.30
2009,04,27,08,30,7.40
2009,04,27,08,31,7.50
2009,04,27,08,32,7.60
2009,04,27,08,33,7.70
2009,04,27,08,34,7.90
2009,04,27,08,35,8.00
2009,04,27,08,36,8.10
2009,04,27,08,37,8.20
2009,04,27,08,38,8.20
2009,04,27,08,39,8.30
2009,04,27,08,40,8.30
2009,04,27,08,41,8.40
2009,04,27,08,42,8.40
2009,04,27,08,43,8.40
2009,04,27,08,44,8.40
2009,04,27,08,45,8.40
2009,04,27,08,46,8.50
2009,04,27,08,47,8.60
2009,04,27,08,48,8.70
2009,04,27,08,49,8.80
2009,04,27,08,50,9.00
2009,04,27,08,51,9.10
2009,04,27,08,52,9.30
2009,04,27,08,53,9.40
2009,04,27,08,54,9.50
2009,04,27,08,55,9.60
2009,04,27,08,56,9.70
2009,04,27,08,57,9.80
2009,04,27,08,58,9.90
2009,04,27,08,59,10.00
2009,04,27,09,00,10.10
2009,04,27,09,01,10.20
2009,04,27,09,02,10.30
2009,04,27,09,03,10.30
2009,04,27,09,04,10.40
2009,04,27,09,05,10.40
2009,04,27,09,06,10.50
2009,04,27,09,07,10.60
2009,04,27,09,08,10.60
2009,04,27,09,09,10.70
2009,04,27,09,10,10.70
2009,04,27,09,11,10.70
2009,04,27,09,12,10.80
2009,04,27,09,13,10.80
2009,04,27,09,14,10.80
2009,04,27,09,15,10.80
2009,04,27,09,16,10.80
2009,04,27,09,17,10.80
2009,04,27,09,18,10.80
2009,04,27,09,19,10.80
2009,04,27,09,20,10.90
2009,04,27,09,21,10.90
2009,04,27,09,22,10.90
2009,04,27,09,23,11.00
2009,04,27,09,24,11.00
2009,04,27,09,25,11.10
2009,04,27,09,26,11.10
2009,04,27,09,27,11.20
2009,04,27,09,28,11.20
2009,04,27,09,29,11.20
2009,04,27,09,30,11.30
2009,04,27,09,31,11.30
2009,04,27,09,32,11.30
2009,04,27,09,33,11.30
2009,04,27,09,34,11.30
2009,04,27,09,35,11.30
2009,04,27,09,36,11.30
2009,04,27,09,37,11.30
2009,04,27,09,38,11.30
2009,04,27,09,39,11.30
2009,04,27,09,40,11.30
2009,04,27,09,41,11.30
2009,04,27,09,42,11.30
2009,04,27,09,43,11.30
2009,04,27,09,44,11.30
2009,04,27,09,45,11.30
2009,04,27,09,46,11.30
2009,04,27,09,47,11.40
2009,04,27,09,48,11.40
2009,04,27,09,49,11.40
2009,04,27,09,50,11.60
2009,04,27,09,51,11.60
2009,04,27,09,52,11.70
2009,04,27,09,53,11.70
2009,04,27,09,54,11.80
2009,04,27,09,55,11.80
2009,04,27,09,56,11.80
2009,04,27,09,57,11.80
2009,04,27,09,58,11.80
2009,04,27,09,59,11.80
2009,04,27,10,00,11.80
2009,04,27,10,01,11.80
2009,04,27,10,02,11.80
2009,04,27,10,03,11.90
2009,04,27,10,04,11.90
2009,04,27,10,05,12.00
2009,04,27,10,06,12.00
2009,04,27,10,07,12.10
2009,04,27,10,08,12.10
2009,04,27,10,09,12.20
2009,04,27,10,10,12.20
2009,04,27,10,11,12.20
2009,04,27,10,12,12.20
2009,04,27,10,13,12.30
2009,04,27,10,14,12.30
2009,04,27,10,15,12.30
2009,04,27,10,16,12.30
2009,04,27,10,17,12.40
2009,04,27,10,18,12.40
2009,04,27,10,19,12.40
2009,04,27,10,20,12.40
2009,04,27,10,21,12.50
2009,04,27,10,22,12.50
2009,04,27,10,23,12.40
2009,04,27,10,24,12.40
2009,04,27,10,25,12.40
2009,04,27,10,26,12.40
2009,04,27,10,27,12.40
2009,04,27,10,28,12.40
2009,04,27,10,29,12.50
2009,04,27,10,30,12.50
2009,04,27,10,31,12.50
2009,04,27,10,32,12.60
2009,04,27,10,33,12.60
2009,04,27,10,34,12.60
2009,04,27,10,35,12.60
2009,04,27,10,36,12.60
2009,04,27,10,37,12.60
2009,04,27,10,38,12.60
2009,04,27,10,39,12.60
2009,04,27,10,40,12.70
2009,04,27,10,41,12.70
2009,04,27,10,42,12.80
2009,04,27,10,43,12.80
2009,04,27,10,44,12.80
2009,04,27,10,45,12.80
2009,04,27,10,46,12.80
2009,04,27,10,47,12.70
2009,04,27,10,48,12.70
2009,04,27,10,49,12.70
2009,04,27,10,50,12.70
2009,04,27,10,51,12.70
2009,04,27,10,52,12.70
2009,04,27,10,53,12.70
2009,04,27,10,54,12.80
2009,04,27,10,55,12.80
2009,04,27,10,56,12.90
2009,04,27,10,57,12.90
2009,04,27,10,58,12.90
2009,04,27,10,59,12.90
2009,04,27,11,00,12.90
2009,04,27,11,01,12.90
2009,04,27,11,02,12.90
2009,04,27,11,03,12.90
2009,04,27,11,04,12.90
2009,04,27,11,05,12.90
2009,04,27,11,06,12.80
2009,04,27,11,07,12.80
2009,04,27,11,08,12.90
2009,04,27,11,09,12.90
2009,04,27,11,10,12.90
2009,04,27,11,11,12.90
2009,04,27,11,12,13.00
2009,04,27,11,13,13.00
2009,04,27,11,14,13.10
2009,04,27,11,15,13.10
2009,04,27,11,16,13.20
2009,04,27,11,17,13.30
2009,04,27,11,18,13.40
2009,04,27,11,19,13.50
2009,04,27,11,20,13.50
2009,04,27,11,21,13.60
2009,04,27,11,22,13.60
2009,04,27,11,23,13.60
2009,04,27,11,24,13.60
2009,04,27,11,25,13.60
2009,04,27,11,26,13.60
2009,04,27,11,27,13.70
2009,04,27,11,28,13.60
2009,04,27,11,29,13.60
2009,04,27,11,30,13.60
2009,04,27,11,31,13.70
2009,04,27,11,32,13.70
2009,04,27,11,33,13.70
2009,04,27,11,34,13.70
2009,04,27,11,35,13.70
2009,04,27,11,36,13.70
2009,04,27,11,37,13.80
2009,04,27,11,38,13.70
2009,04,27,11,39,13.70
2009,04,27,11,40,13.70
2009,04,27,11,41,13.80
2009,04,27,11,42,13.80
2009,04,27,11,43,13.90
2009,04,27,11,44,14.00
2009,04,27,11,45,14.00
2009,04,27,11,46,14.00
2009,04,27,11,47,14.00
2009,04,27,11,48,14.10
2009,04,27,11,49,14.10
2009,04,27,11,50,14.00
2009,04,27,11,51,14.00
2009,04,27,11,52,14.00
2009,04,27,11,53,13.90
2009,04,27,11,54,13.90
2009,04,27,11,55,13.90
2009,04,27,11,56,13.80
2009,04,27,11,57,13.80
2009,04,27,11,58,13.80
2009,04,27,11,59,13.80
2009,04,27,12,00,13.80
2009,04,27,12,01,13.80
2009,04,27,12,02,13.80
2009,04,27,12,03,13.90
2009,04,27,12,04,13.90
2009,04,27,12,05,14.00
2009,04,27,12,06,14.10
2009,04,27,12,07,14.10
2009,04,27,12,08,14.10
2009,04,27,12,09,14.20
2009,04,27,12,10,14.20
2009,04,27,12,11,14.20
2009,04,27,12,12,14.20
2009,04,27,12,13,14.20
2009,04,27,12,14,14.20
2009,04,27,12,15,14.20
2009,04,27,12,16,14.20
2009,04,27,12,17,14.20
2009,04,27,12,18,14.20
2009,04,27,12,19,14.20
2009,04,27,12,20,14.10
2009,04,27,12,21,14.10
2009,04,27,12,22,14.10
2009,04,27,12,23,14.10
2009,04,27,12,24,14.10
2009,04,27,12,25,14.10
2009,04,27,12,26,14.10
2009,04,27,12,27,14.20
2009,04,27,12,28,14.20
2009,04,27,12,29,14.30
2009,04,27,12,30,14.40
2009,04,27,12,31,14.50
2009,04,27,12,32,14.60
2009,04,27,12,33,14.70
2009,04,27,12,34,14.70
2009,04,27,12,35,14.70
2009,04,27,12,36,14.70
2009,04,27,12,37,14.70
2009,04,27,12,38,14.70
2009,04,27,12,39,14.70
2009,04,27,12,40,14.70
2009,04,27,12,41,14.80
2009,04,27,12,42,14.70
2009,04,27,12,43,14.70
2009,04,27,12,44,14.70
2009,04,27,12,45,14.70
2009,04,27,12,46,14.70
2009,04,27,12,47,14.70
2009,04,27,12,48,14.80
2009,04,27,12,49,14.80
2009,04,27,12,50,14.90
2009,04,27,12,51,14.90
2009,04,27,12,52,14.90
2009,04,27,12,53,14.90
2009,04,27,12,54,14.90
2009,04,27,12,55,14.90
2009,04,27,12,56,14.90
2009,04,27,12,57,14.90
2009,04,27,12,58,14.90
2009,04,27,12,59,14.80
2009,04,27,13,00,14.80
2009,04,27,13,01,14.90
2009,04,27,13,02,15.00
2009,04,27,13,03,15.00
2009,04,27,13,04,15.00
2009,04,27,13,05,15.00
2009,04,27,13,06,15.00
2009,04,27,13,07,15.00
2009,04,27,13,08,15.00
2009,04,27,13,09,14.90
2009,04,27,13,10,14.90
2009,04,27,13,11,14.90
2009,04,27,13,12,15.00
2009,04,27,13,13,15.00
2009,04,27,13,14,15.00
2009,04,27,13,15,15.00
2009,04,27,13,16,15.00
2009,04,27,13,17,15.00
2009,04,27,13,18,14.90
2009,04,27,13,19,14.90
2009,04,27,13,20,14.90
2009,04,27,13,21,14.90
2009,04,27,13,22,15.00
2009,04,27,13,23,15.00
2009,04,27,13,24,15.00
2009,04,27,13,25,15.00
2009,04,27,13,26,15.00
2009,04,27,13,27,15.00
2009,04,27,13,28,15.00
2009,04,27,13,29,15.00
2009,04,27,13,30,15.10
2009,04,27,13,31,15.20
2009,04,27,13,32,15.30
2009,04,27,13,33,15.30
2009,04,27,13,34,15.30
2009,04,27,13,35,15.30
2009,04,27,13,36,15.30
2009,04,27,13,37,15.20
2009,04,27,13,38,15.20
2009,04,27,13,39,15.10
2009,04,27,13,40,15.00
2009,04,27,13,41,15.00
2009,04,27,13,42,15.00
2009,04,27,13,43,15.00
2009,04,27,13,44,15.00
2009,04,27,13,45,15.20
2009,04,27,13,46,15.20
2009,04,27,13,47,15.20
2009,04,27,13,48,15.30
2009,04,27,13,49,15.30
2009,04,27,13,50,15.40
2009,04,27,13,51,15.40
2009,04,27,13,52,15.50
2009,04,27,13,53,15.50
2009,04,27,13,54,15.60
2009,04,27,13,55,15.60
2009,04,27,13,56,15.60
2009,04,27,13,57,15.50
2009,04,27,13,58,15.50
2009,04,27,13,59,15.50
2009,04,27,14,00,15.50
2009,04,27,14,01,15.50
2009,04,27,14,02,15.50
2009,04,27,14,03,15.50
2009,04,27,14,04,15.50
2009,04,27,14,05,15.50
2009,04,27,14,06,15.40
2009,04,27,14,07,15.40
2009,04,27,14,08,15.50
2009,04,27,14,09,15.60
2009,04,27,14,10,15.70
2009,04,27,14,11,15.70
2009,04,27,14,12,15.70
2009,04,27,14,13,15.70
2009,04,27,14,14,15.60
2009,04,27,14,15,15.60
2009,04,27,14,16,15.60
2009,04,27,14,17,15.50
2009,04,27,14,18,15.60
2009,04,27,14,19,15.60
2009,04,27,14,20,15.70
2009,04,27,14,21,15.70
2009,04,27,14,22,15.80
2009,04,27,14,23,15.90
2009,04,27,14,24,15.90
2009,04,27,14,25,15.90
2009,04,27,14,26,15.90
2009,04,27,14,27,15.80
2009,04,27,14,28,15.80
2009,04,27,14,29,15.80
2009,04,27,14,30,15.80
2009,04,27,14,31,15.80
2009,04,27,14,32,15.80
2009,04,27,14,33,15.90
2009,04,27,14,34,15.90
2009,04,27,14,35,15.90
2009,04,27,14,36,15.90
2009,04,27,14,37,15.90
2009,04,27,14,38,15.90
2009,04,27,14,39,15.80
2009,04,27,14,40,15.80
2009,04,27,14,41,15.70
2009,04,27,14,42,15.60
2009,04,27,14,43,15.50
2009,04,27,14,44,15.50
2009,04,27,14,45,15.50
2009,04,27,14,46,15.60
2009,04,27,14,47,15.60
2009,04,27,14,48,15.60
2009,04,27,14,49,15.70
2009,04,27,14,50,15.80
2009,04,27,14,51,15.80
2009,04,27,14,52,15.80
2009,04,27,14,53,15.80
2009,04,27,14,54,15.90
2009,04,27,14,55,16.00
2009,04,27,14,56,16.00
2009,04,27,14,57,16.00
2009,04,27,14,58,16.00
2009,04,27,14,59,16.00
2009,04,27,15,00,16.00
2009,04,27,15,01,16.00
2009,04,27,15,02,16.10
2009,04,27,15,03,16.10
2009,04,27,15,04,16.20
2009,04,27,15,05,16.20
2009,04,27,15,06,16.10
2009,04,27,15,07,16.00
2009,04,27,15,08,16.00
2009,04,27,15,09,15.90
2009,04,27,15,10,15.90
2009,04,27,15,11,15.90
2009,04,27,15,12,15.90
2009,04,27,15,13,16.00
2009,04,27,15,14,15.90
2009,04,27,15,15,15.90
2009,04,27,15,16,15.90
2009,04,27,15,17,15.90
2009,04,27,15,18,15.90
2009,04,27,15,19,15.90
2009,04,27,15,20,15.90
2009,04,27,15,21,16.00
2009,04,27,15,22,16.00
2009,04,27,15,23,15.90
2009,04,27,15,24,15.90
2009,04,27,15,25,15.80
2009,04,27,15,26,15.80
2009,04,27,15,27,15.80
2009,04,27,15,28,15.80
2009,04,27,15,29,15.80
2009,04,27,15,30,15.90
2009,04,27,15,31,15.90
2009,04,27,15,32,16.00
2009,04,27,15,33,16.00
2009,04,27,15,34,16.10
2009,04,27,15,35,16.10
2009,04,27,15,36,16.20
2009,04,27,15,37,16.30
2009,04,27,15,38,16.30
2009,04,27,15,39,16.30
2009,04,27,15,40,16.30
2009,04,27,15,41,16.40
2009,04,27,15,42,16.40
2009,04,27,15,43,16.40
2009,04,27,15,44,16.30
2009,04,27,15,45,16.30
2009,04,27,15,46,16.20
2009,04,27,15,47,16.10
2009,04,27,15,48,16.00
2009,04,27,15,49,16.00
2009,04,27,15,50,15.90
2009,04,27,15,51,15.80
2009,04,27,15,52,15.80
2009,04,27,15,53,15.80
2009,04,27,15,54,15.80
2009,04,27,15,55,15.80
2009,04,27,15,56,15.80
2009,04,27,15,57,15.90
2009,04,27,15,58,15.90
2009,04,27,15,59,16.00
2009,04,27,16,00,16.10
2009,04,27,16,01,16.20
2009,04,27,16,02,16.30
2009,04,27,16,03,16.30
2009,04,27,16,04,16.40
2009,04,27,16,05,16.40
2009,04,27,16,06,16.50
2009,04,27,16,07,16.50
2009,04,27,16,08,16.60
2009,04,27,16,09,16.60
2009,04,27,16,10,16.60
2009,04,27,16,11,16.60
2009,04,27,16,12,16.70
2009,04,27,16,13,16.60
2009,04,27,16,14,16.60
2009,04,27,16,15,16.60
2009,04,27,16,16,16.60
2009,04,27,16,17,16.60
2009,04,27,16,18,16.70
2009,04,27,16,19,16.70
2009,04,27,16,20,16.70
2009,04,27,16,21,16.70
2009,04,27,16,22,16.70
2009,04,27,16,23,16.60
2009,04,27,16,24,16.50
2009,04,27,16,25,16.50
2009,04,27,16,26,16.40
2009,04,27,16,27,16.40
2009,04,27,16,28,16.40
2009,04,27,16,29,16.30
2009,04,27,16,30,16.40
2009,04,27,16,31,16.40
2009,04,27,16,32,16.40
2009,04,27,16,33,16.40
2009,04,27,16,34,16.50
2009,04,27,16,35,16.50
2009,04,27,16,36,16.50
2009,04,27,16,37,16.60
2009,04,27,16,38,16.60
2009,04,27,16,39,16.60
2009,04,27,16,40,16.60
2009,04,27,16,41,16.70
2009,04,27,16,42,16.70
2009,04,27,16,43,16.60
2009,04,27,16,44,16.60
2009,04,27,16,45,16.60
2009,04,27,16,46,16.50
2009,04,27,16,47,16.40
2009,04,27,16,48,16.40
2009,04,27,16,49,16.30
2009,04,27,16,50,16.30
2009,04,27,16,51,16.30
2009,04,27,16,52,16.30
2009,04,27,16,53,16.30
2009,04,27,16,54,16.30
2009,04,27,16,55,16.30
2009,04,27,16,56,16.30
2009,04,27,16,57,16.30
2009,04,27,16,58,16.20
2009,04,27,16,59,16.20
2009,04,27,17,00,16.20
2009,04,27,17,01,16.20
2009,04,27,17,02,16.20
2009,04,27,17,03,16.20
2009,04,27,17,04,16.20
2009,04,27,17,05,16.20
2009,04,27,17,06,16.20
2009,04,27,17,07,16.30
2009,04,27,17,08,16.30
2009,04,27,17,09,16.30
2009,04,27,17,10,16.30
2009,04,27,17,11,16.30
2009,04,27,17,12,16.30
2009,04,27,17,13,16.20
2009,04,27,17,14,16.20
2009,04,27,17,15,16.20
2009,04,27,17,16,16.20
2009,04,27,17,17,16.10
2009,04,27,17,18,16.10
2009,04,27,17,19,16.10
2009,04,27,17,20,16.10
2009,04,27,17,21,16.10
2009,04,27,17,22,16.10
2009,04,27,17,23,16.00
2009,04,27,17,24,16.00
2009,04,27,17,25,16.00
2009,04,27,17,26,16.00
2009,04,27,17,27,16.00
2009,04,27,17,28,16.10
2009,04,27,17,29,16.10
2009,04,27,17,30,16.10
2009,04,27,17,31,16.20
2009,04,27,17,32,16.20
2009,04,27,17,33,16.20
2009,04,27,17,34,16.10
2009,04,27,17,35,16.10
2009,04,27,17,36,16.00
2009,04,27,17,37,16.00
2009,04,27,17,38,15.90
2009,04,27,17,39,15.90
2009,04,27,17,40,15.80
2009,04,27,17,41,15.80
2009,04,27,17,42,15.70